Lake Oliver Weather Center

Moon Phase Calendar



Lake Oliver Water Level
Online Cameras

 


      

Current Conditions in Smiths
1/21/2022 10:17:47 AM

35°F
Feels Like 29
Clouds
Humidity
89%
Pressure
30.27"
Wind
8 mph (NNE)
Dew Point
33°F
UV Index
1/10 (Low)
Visibility
6 mi

Hourly Forecast

Date & Time Fri, Jan 21
10:00 AM
Fri, Jan 21
11:00 AM
Fri, Jan 21
12:00 PM
Fri, Jan 21
1:00 PM
Fri, Jan 21
2:00 PM
Fri, Jan 21
3:00 PM
Fri, Jan 21
4:00 PM
Fri, Jan 21
5:00 PM
Fri, Jan 21
6:00 PM
Fri, Jan 21
7:00 PM
Fri, Jan 21
8:00 PM
Fri, Jan 21
9:00 PM
Fri, Jan 21
10:00 PM
Fri, Jan 21
11:00 PM
Sat, Jan 22
12:00 AM
Sat, Jan 22
1:00 AM
Sat, Jan 22
2:00 AM
Sat, Jan 22
3:00 AM
Sat, Jan 22
4:00 AM
Sat, Jan 22
5:00 AM
Sat, Jan 22
6:00 AM
Sat, Jan 22
7:00 AM
Sat, Jan 22
8:00 AM
Sat, Jan 22
9:00 AM
Sat, Jan 22
10:00 AM
Sat, Jan 22
11:00 AM
Sat, Jan 22
12:00 PM
Sat, Jan 22
1:00 PM
Sat, Jan 22
2:00 PM
Sat, Jan 22
3:00 PM
Sat, Jan 22
4:00 PM
Sat, Jan 22
5:00 PM
Sat, Jan 22
6:00 PM
Sat, Jan 22
7:00 PM
Sat, Jan 22
8:00 PM
Sat, Jan 22
9:00 PM
Sat, Jan 22
10:00 PM
Sat, Jan 22
11:00 PM
Sun, Jan 23
12:00 AM
Sun, Jan 23
1:00 AM
Sun, Jan 23
2:00 AM
Sun, Jan 23
3:00 AM
Sun, Jan 23
4:00 AM
Sun, Jan 23
5:00 AM
Sun, Jan 23
6:00 AM
Sun, Jan 23
7:00 AM
Sun, Jan 23
8:00 AM
Sun, Jan 23
9:00 AM
Condition
Clouds

Clouds

Clouds

Clouds

Clouds

Rain

Rain

Clouds

Clouds

Clouds

Clouds

Clouds

Clouds

Clouds

Clouds

Clouds

Clouds

Clouds

Clouds

Clouds

Clouds

Clouds

Clouds

Clouds

Clouds

Clouds

Clouds

Clouds

Clear

Clear

Clear

Clear

Clear

Clear

Clear

Clear

Clear

Clear

Clear

Clear

Clear

Clear

Clear

Clear

Clear

Clear

Clear

Clear
Temperature 35°F36°F38°F39°F41°F42°F41°F41°F40°F40°F39°F39°F38°F37°F36°F35°F34°F34°F33°F32°F32°F32°F31°F33°F37°F40°F44°F47°F49°F50°F50°F48°F43°F41°F40°F38°F36°F35°F34°F33°F32°F31°F31°F30°F30°F30°F31°F35°F
Feels Like 29°F31°F33°F35°F37°F38°F37°F37°F36°F35°F34°F34°F33°F33°F31°F30°F29°F29°F28°F26°F26°F26°F24°F27°F32°F37°F41°F45°F49°F50°F48°F47°F41°F39°F37°F34°F32°F31°F30°F27°F27°F26°F25°F25°F26°F26°F26°F30°F
Cloudiness 100%100%100%100%100%100%100%100%100%100%100%100%100%100%100%100%100%100%93%94%95%96%86%63%74%61%50%43%6%6%5%5%4%3%0%0%0%0%0%0%0%0%0%0%0%0%0%0%
Visibility 6 mi6 mi6 mi6 mi6 mi6 mi6 mi6 mi6 mi6 mi6 mi6 mi6 mi6 mi6 mi6 mi6 mi6 mi6 mi6 mi6 mi6 mi6 mi6 mi6 mi6 mi6 mi6 mi6 mi6 mi6 mi6 mi6 mi6 mi6 mi6 mi6 mi6 mi6 mi6 mi6 mi6 mi6 mi6 mi6 mi6 mi6 mi6 mi
Precipitation 0%0%0%0%16%55%58%58%57%57%24%9%9%0%0%0%0%0%0%0%0%0%0%0%0%0%0%0%0%0%0%0%0%0%0%0%0%0%0%0%0%0%0%0%0%0%0%0%
Humidity 89%87%86%85%85%89%90%89%89%89%88%87%87%87%88%90%91%90%92%93%91%92%92%83%74%66%59%53%49%46%45%51%61%65%67%71%73%70%69%68%66%64%62%59%58%57%55%43%
Dew Point 33°F33°F34°F35°F37°F38°F38°F37°F37°F36°F35°F35°F34°F33°F33°F32°F32°F31°F30°F30°F29°F29°F29°F28°F29°F30°F30°F30°F30°F30°F29°F31°F30°F29°F29°F29°F28°F26°F24°F23°F22°F20°F18°F17°F16°F16°F16°F15°F
Pressure 30.27"30.27"30.27"30.24"30.24"30.24"30.24"30.24"30.27"30.3"30.3"30.33"30.33"30.33"30.33"30.3"30.3"30.3"30.33"30.3"30.33"30.36"30.36"30.39"30.39"30.39"30.36"30.33"30.3"30.27"30.27"30.24"30.27"30.27"30.27"30.3"30.3"30.27"30.27"30.27"30.27"30.24"30.24"30.21"30.21"30.21"30.21"30.21"
Wind Speed 7.6 mph7.2 mph6.4 mph6.4 mph6.3 mph5.8 mph6.3 mph6 mph5.7 mph6.9 mph7 mph6.6 mph7 mph6.2 mph5.9 mph5.9 mph6.2 mph5.6 mph5.1 mph5.6 mph6 mph5.2 mph7.2 mph7.5 mph6.1 mph5.4 mph5.2 mph3.8 mph2.5 mph2.9 mph3.8 mph3.9 mph4.1 mph3.1 mph3.4 mph5.2 mph4.8 mph4.7 mph4.5 mph5.6 mph5 mph5.3 mph5.3 mph4.5 mph4.1 mph4.2 mph4.2 mph5.9 mph
Wind
Direction
19°
NNE

N
34°
NE
35°
NE
36°
NE
37°
NE
37°
NE
31°
NNE
29°
NNE
27°
NNE
38°
NE
44°
NE
44°
NE
52°
NE
48°
NE
46°
NE
36°
NE
42°
NE
37°
NE
42°
NE
43°
NE
33°
NNE
26°
NNE
42°
NE
56°
NE
55°
NE
59°
ENE
55°
NE
21°
NNE
342°
NNW
330°
NNW
330°
NNW
331°
NNW
340°
NNW
327°
NNW
321°
NW
333°
NNW
344°
NNW
335°
NNW
334°
NNW
329°
NNW
324°
NW
326°
NW
316°
NW
307°
NW
299°
WNW
295°
WNW
303°
WNW

Daily Forecast

Date High Low Precip. Humidity
Today
Jan 21

Rain
42 °F
33 °F
58%
86%
Saturday
Jan 22

Clouds
50 °F
31 °F
0%
59%
Sunday
Jan 23

Clear
52 °F
30 °F
0%
33%
Monday
Jan 24

Clouds
54 °F
34 °F
0%
49%
Tuesday
Jan 25

Rain
48 °F
43 °F
100%
96%
Wednesday
Jan 26

Clouds
53 °F
39 °F
0%
61%
Thursday
Jan 27

Clear
54 °F
30 °F
0%
50%
Friday
Jan 28

Clear
55 °F
33 °F
0%
35%
Saturday
Jan 29

Clouds
59 °F
37 °F
0%
48%
Sunday
Jan 30

Rain
62 °F
37 °F
100%
59%
Monday
Jan 31

Snow
32 °F
22 °F
100%
34%
Tuesday
Feb 1

Clear
41 °F
17 °F
0%
20%
Wednesday
Feb 2

Rain
49 °F
29 °F
79%
30%
Thursday
Feb 3

Rain
54 °F
40 °F
99%
77%
Friday
Feb 4

Rain
59 °F
47 °F
20%
83%
Saturday
Feb 5

Rain
63 °F
55 °F
20%
83%

Temperature 8-14 Day Outlook



Precipitation 8-14 Day Outlook




Quick Links
Lake Oliver News
Lake Oliver Photos
Lake Oliver Videos




About Us
Contact Us
Site Map
Search Site
Advertise With Us
   
Oliver.USLakes.info
THE LAKE OLIVER WEBSITE

Copyright 2022, Lakes Online
Privacy    |    Legal